RH
61 56 55 59 59 64 69 72 68 68 70 71 70 61 54 53 52 50 51 53 49 46 41 38 36 40 40
77 73 68 60 64 66 63 69 74 76 72 67 70 73 71 68 64 59 51 55 57 48 40 33 30 29 28
99 95 98 96 86 81 83 74 85 84 88 93 92 79 68 64 61 61 59 61 56 50 46 40 35 35 34
99 100 98 100 97 93 96 87 78 90 95 97 100 100 100 93 78 70 71 68 62 59 52 47 44 43 49
90 86 96 92 88 86 92 92 86 93 95 97 88 94 100 100 100 97 87 84 77 78 73 67 54 52 48
22 24 33 39 44 46 52 60 66 53 54 73 85 91 95 93 99 100 100 100 98 96 95 89 89 72 59
14 14 13 13 15 18 28 32 29 18 16 32 62 73 92 97 97 93 97 100 100 100 99 100 96 91 88
10 10 10 10 11 12 11 11 11 11 11 15 24 32 43 68 88 98 100 100 95 95 96 94 95 92 83
14 13 12 11 10 10 10 10 10 10 10 11 13 16 15 29 46 55 73 80 83 83 77 73 73 74 74
23 23 22 21 17 13 12 12 12 11 11 10 10 11 12 15 16 18 22 35 49 59 61 60 61 62 62
18 17 17 18 21 25 27 22 19 19 21 16 14 12 11 12 13 15 17 22 23 25 30 31 30 29 34
13 13 13 13 13 12 12 16 21 25 26 22 20 19 19 20 18 14 12 12 11 12 12 13 13 14 14
10 10 10 10 11 12 12 12 12 13 14 14 13 13 12 12 13 14 16 16 15 15 14 14 13 12 12
10 10 9 9 9 8 9 9 10 10 11 12 12 12 12 12 11 11 10 11 10 10 11 11 12 11 10
12 12 12 12 11 11 10 10 9 9 9 8 9 9 9 10 10 11 12 11 11 11 9 9 9 8 8
12 12 11 11 10 10 9 9 10 10 10 10 10 10 11 11 11 10 9 10 10 10 9 8 9 8 7
7 8 8 8 8 8 8 8 8 9 9 9 10 10 10 11 10 10 11 11 11 10 10 10 10 10 8
Wind_Speed
107 106 103 101 102 100 100 102 104 106 109 111 111 113 114 114 114 114 117 118 116 116 115 115 115 116 116
116 115 114 111 109 108 107 105 105 107 106 108 111 114 114 114 114 113 111 109 110 110 111 111 111 111 114
123 120 121 122 120 118 117 115 112 111 110 111 113 112 111 111 112 112 110 108 109 109 108 107 106 107 108
125 127 128 129 129 126 122 123 121 120 120 117 118 117 117 115 114 113 112 111 110 108 108 107 106 106 106
130 132 135 135 134 133 131 131 129 128 127 127 125 122 123 121 120 120 120 118 117 114 114 113 111 109 107
127 127 130 131 132 132 132 131 132 132 132 132 131 130 129 129 128 127 126 126 123 122 122 122 119 119 116
124 125 126 126 129 129 130 130 130 131 132 132 136 135 136 135 134 135 134 132 131 130 129 128 128 126 125
121 122 122 122 124 126 128 128 127 126 131 131 134 132 134 137 140 141 140 139 138 137 137 137 137 136 134
116 117 118 120 121 122 123 124 124 124 127 126 128 130 133 136 139 142 145 147 146 145 145 144 143 142 141
112 112 112 112 114 115 118 119 120 120 123 122 122 125 125 130 133 137 139 143 146 148 149 147 148 148 147
121 120 120 120 120 119 117 115 114 114 119 118 116 120 122 124 129 131 133 135 137 139 143 144 144 144 144
108 110 111 111 113 114 120 124 122 121 125 128 127 127 126 123 123 128 128 130 131 133 135 137 137 138 137
100 101 103 103 104 105 107 108 110 112 116 120 120 122 122 123 128 131 133 132 131 132 132 131 131 132 132
91 93 94 95 95 97 98 100 100 103 106 109 111 111 111 110 111 115 121 125 129 129 129 128 129 130 128
85 86 88 88 89 90 90 91 92 94 97 99 100 100 100 102 101 104 107 110 113 115 115 114 116 117 116
83 84 85 86 87 87 86 86 87 89 90 92 91 90 90 91 93 96 96 99 102 104 106 105 104 106 106
78 79 80 81 82 83 82 82 83 84 85 86 87 86 86 86 90 89 91 94 97 100 101 100 99 102 101
Wind_Direction
258 258 256 255 254 254 254 254 254 254 255 255 255 255 256 256 257 257 257 256 256 256 256 255 255 254 254
261 260 259 259 259 257 255 254 255 255 255 255 255 255 256 256 256 256 256 256 256 256 256 256 255 255 254
260 259 259 260 260 259 257 255 254 255 255 255 255 256 255 255 255 255 255 255 255 255 255 255 255 254 254
259 259 259 259 259 259 257 256 255 256 255 254 255 254 255 255 255 255 255 256 256 256 256 255 255 254 253
259 259 258 257 256 256 255 255 255 254 255 254 254 254 253 254 255 255 255 255 255 256 256 256 256 256 256
257 257 257 256 256 255 254 254 254 255 252 251 252 252 253 252 252 253 254 254 254 255 256 257 258 257 257
257 256 256 257 257 256 255 254 254 255 255 252 251 251 251 252 252 252 253 254 255 254 254 255 255 256 257
258 258 257 257 257 257 257 256 255 255 254 253 251 250 250 250 251 251 252 253 253 254 255 255 255 255 255
259 258 257 257 257 256 256 256 256 255 254 253 253 253 253 251 251 251 252 252 253 253 254 254 255 256 256
260 259 258 257 257 256 255 256 257 257 256 254 253 254 252 253 253 254 253 253 253 254 255 256 256 256 256
260 260 259 258 257 257 257 255 255 255 257 257 255 255 254 253 253 253 254 254 254 254 255 255 255 255 255
260 260 260 259 259 258 257 256 255 255 257 258 258 257 256 255 254 256 255 255 255 255 255 255 255 255 255
260 260 260 260 259 258 258 257 257 256 256 257 257 257 257 257 257 256 256 257 256 256 257 257 257 257 257
261 260 260 260 259 258 258 258 258 257 257 256 257 257 257 257 257 257 256 257 258 258 258 259 259 259 259
260 260 259 259 259 258 258 257 257 256 257 256 256 256 256 257 256 256 256 257 257 258 258 258 258 258 258
260 260 260 259 259 259 258 257 257 256 257 257 257 256 256 256 256 256 255 256 257 257 258 258 258 259 258
260 260 259 259 259 260 260 259 259 258 258 258 258 257 256 256 257 256 256 256 256 256 257 258 258 259 260